Location: Unspecified
(0.0000°N, 0.0000°E)
Time: 05:15:23
(UTC+00:00)

CUTE 1.7 + AOD 2 - Pass Details

Date: 25 May 2026
Orbit: 531 x 545 km, 97.8° (Epoch: 11 June)

Event Time Altitude Azimuth Distance (km) Brightness Sun altitude
Rises 03:23:47 0° 39° (NE) 2,664 ? -35.4°
Reaches altitude 10° 03:26:27 10° 60° (ENE) 1,780 ? -34.8°
Enters shadow 03:27:44 15° 78° (ENE) 1,492 ? -34.5°
